Home   Weather   Fairfield (historical)   Past weeks
Flag for USA

Past Weather in Fairfield (historical), Missouri, USA — Yesterday and Last 2 Weeks

Now
30 °F

Clear.


Feels Like: 24 °F
Forecast: 35 / 29 °F
Wind: 6 mph from Southeast

Location: Springfield Regional Airport

Current Time: Dec 15, 2019 at 4:39:01 am

Latest Report: Dec 15, 2019 at 3:52 am


Visibility: 10 mi

Pressure: 29.99 "Hg

Humidity: 82%

Dew Point: 25 °F

Location of Fairfield (historical)Location

Past Weather in Fairfield (historical) — Graph

°F

Fairfield (historical) Temperature Yesterday

Maximum temperature yesterday: 42 °F (at 2:52 am)
Minimum temperature yesterday: 30 °F (at 1:01 pm)
Average temperature yesterday: 34 °F

High & Low Weather Summary for the Past Weeks

 TemperatureHumidityPressure
High65 °F (Nov 30, 12:52 pm)100% (Nov 30, 6:02 am)30.50 "Hg (Nov 30, 6:02 am)
Low22 °F (Dec 10, 2:52 am)24% (Dec 12, 2:52 pm)29.46 "Hg (Nov 30, 2:52 pm)
Average40 °F67%30.01 "Hg
* Reported Nov 30 2:52 am — Dec 15 2:52 am, Fairfield (historical). Weather by CustomWeather, © 2019

Note: Actual official high and low records may vary slightly from our data, if they occured in-between our weather recording intervals... More about our weather records

Fairfield (historical) Weather History for the Previous 24 Hours

Scroll right to see more
 ConditionsComfort  
Time TempWeatherWind HumidityBarometerVisibility
2:52 am
Sun, Dec 15
29 °FPassing clouds.8 mph82%29.98 "Hg10 mi
1:52 am30 °FOvercast.6 mph82%30.00 "Hg10 mi
12:52 am30 °FOvercast.6 mph82%29.99 "Hg10 mi
11:52 pm
Sat, Dec 14
30 °FOvercast.5 mph82%30.01 "Hg10 mi
10:52 pm30 °FOvercast.5 mph82%30.00 "Hg10 mi
9:52 pm30 °FPartly cloudy.5 mph82%29.99 "Hg10 mi
8:52 pm30 °FOvercast.6 mph82%29.98 "Hg10 mi
7:52 pm30 °FOvercast.6 mph82%29.96 "Hg10 mi
6:52 pm30 °FOvercast.6 mph82%29.95 "Hg10 mi
5:52 pm31 °FOvercast.5 mph82%29.93 "Hg10 mi
4:52 pm31 °FOvercast.7 mph82%29.94 "Hg10 mi
4:10 pm31 °FOvercast.9 mph82%29.91 "Hg10 mi
2:52 pm31 °FLow clouds.10 mph85%29.91 "Hg10 mi
1:52 pm30 °FLow clouds.9 mph89%29.93 "Hg8 mi
1:10 pm30 °FIce fog.10 mph92%29.90 "Hg3 mi
1:01 pm30 °FIce fog.13 mph92%29.89 "Hg2 mi
12:26 pm31 °FIce fog.7 mph89%29.91 "Hg5 mi
11:52 am32 °FIce fog.9 mph88%29.93 "Hg3 mi
11:10 am33 °FFog.9 mph88%29.90 "Hg3 mi
10:52 am33 °FFog.14 mph92%29.92 "Hg2 mi
10:21 am34 °FFog.10 mph88%29.90 "Hg2 mi
9:59 am34 °FFog.10 mph88%29.89 "Hg3 mi
8:52 am34 °FFog.15 mph88%29.88 "Hg4 mi
8:32 am36 °FFog.15 mph85%29.85 "Hg5 mi
7:52 am37 °FFog.16 mph86%29.85 "Hg5 mi
7:20 am38 °FOvercast.15 mph86%29.82 "Hg7 mi
6:52 am39 °FMostly cloudy.15 mph86%29.83 "Hg7 mi
5:52 am41 °FLow clouds.9 mph86%29.80 "Hg7 mi
4:52 am40 °FLow clouds.9 mph89%29.76 "Hg7 mi
Weather by CustomWeather, © 2019

See weather overview

Advertising